contact:dominique.lefevre@mio.osupytheas.fr, maurice.libes@osupytheas.fr, didier.mallarino@osupytheas.fr
Project:EMSO http://www.emso-fr.org/EMSO-France
Depth: 2436.0 m
Title:EMSO Ligure Ouest : Data MII capteur AQUADOPP
Date,Latitude,Longitude,X_East,Y_North,Z_Up,Amplitude_X,Amplitude_Y,Amplitude_Z,Batterie,SoundSpeed,Heading,Pitch,Roll,Pressure,TIS,Speed,Direction
, degrees North, degrees East, m.s-1, m.s-1,m.s-1, 1, 1, 1, Volt, m.s-1, degree, degree, degree, dbar, degree_C, m.s-1, degree
2023-10-20T00:04:03,42.805,6.029,0.049,-0.003,0.02,103.0,103.0,101.0,13.4,1505.2,347.6,-0.8,1.8,2471.592,13.28,0.049,93.5
2023-10-20T00:07:03,42.805,6.029,0.041,-0.018,-0.02,102.0,103.0,102.0,13.4,1505.2,335.6,-0.8,1.8,2471.569,13.28,0.044,113.7
2023-10-20T00:10:03,42.805,6.029,0.058,0.0,0.0,103.0,104.0,102.0,13.4,1505.2,337.6,-0.8,1.8,2471.583,13.29,0.057,90.0
2023-10-20T00:13:03,42.805,6.029,0.062,-0.005,0.024,102.0,104.0,101.0,13.3,1505.2,340.4,-0.7,1.8,2471.57,13.29,0.062,94.6
2023-10-20T00:16:03,42.805,6.029,0.048,-0.023,-0.016,103.0,103.0,101.0,13.4,1505.2,348.4,-0.7,1.8,2471.562,13.29,0.053,115.6
2023-10-20T00:19:03,42.805,6.029,0.042,-0.004,-0.005,101.0,103.0,102.0,13.3,1505.2,341.0,-0.7,1.8,2471.556,13.29,0.042,95.4
2023-10-20T00:22:03,42.805,6.029,0.033,-0.024,-0.018,104.0,102.0,100.0,13.4,1505.2,356.9,-0.7,1.8,2471.517,13.29,0.04,126.0
2023-10-20T00:25:03,42.805,6.029,0.048,-0.006,0.001,103.0,104.0,101.0,13.4,1505.2,330.9,-0.8,1.8,2471.556,13.29,0.048,97.1
2023-10-20T00:28:03,42.805,6.029,0.036,-0.021,-0.011,103.0,103.0,101.0,13.4,1505.2,347.2,-0.8,1.8,2471.542,13.29,0.041,120.3
2023-10-20T00:31:03,42.805,6.029,0.04,-0.015,-0.007,104.0,102.0,100.0,13.4,1505.2,345.1,-0.7,1.8,2471.55,13.29,0.042,110.6
2023-10-20T00:34:03,42.805,6.029,0.028,-0.007,-0.001,103.0,104.0,100.0,13.4,1505.2,339.0,-0.8,1.8,2471.527,13.29,0.028,104.0
2023-10-20T00:37:03,42.805,6.029,0.049,-0.03,-0.017,102.0,103.0,102.0,13.4,1505.2,350.3,-0.8,1.8,2471.501,13.29,0.057,121.5
2023-10-20T00:40:03,42.805,6.029,0.043,-0.024,0.016,102.0,103.0,102.0,13.3,1505.2,350.5,-0.8,1.8,2471.52,13.29,0.049,119.2
2023-10-20T00:43:03,42.805,6.029,0.023,-0.033,-0.04,102.0,103.0,101.0,13.4,1505.2,338.3,-0.8,1.8,2471.503,13.29,0.04,145.1
2023-10-20T00:46:03,42.805,6.029,0.034,-0.034,0.0,102.0,103.0,101.0,13.4,1505.2,340.7,-0.7,1.8,2471.502,13.29,0.048,135.0
2023-10-20T00:49:03,42.805,6.029,0.029,-0.02,0.002,103.0,102.0,102.0,13.4,1505.2,350.7,-0.8,1.8,2471.547,13.29,0.035,124.6
2023-10-20T00:52:03,42.805,6.029,0.051,-0.038,-0.012,103.0,102.0,101.0,13.4,1505.2,356.9,-0.8,1.8,2471.553,13.29,0.063,126.7
2023-10-20T00:55:03,42.805,6.029,0.029,-0.017,-0.012,102.0,103.0,101.0,13.4,1505.2,339.5,-0.8,1.8,2471.476,13.29,0.033,120.4
2023-10-20T00:58:03,42.805,6.029,0.034,-0.018,-0.015,101.0,102.0,102.0,13.4,1505.2,337.1,-0.8,1.8,2471.523,13.29,0.038,117.9
2023-10-20T01:04:03,42.805,6.029,0.079,-0.036,0.0,103.0,105.0,102.0,13.3,1505.2,331.5,-0.8,1.8,2471.543,13.28,0.086,114.5
2023-10-20T01:07:03,42.805,6.029,0.047,-0.025,-0.013,103.0,101.0,100.0,13.4,1505.2,349.0,-0.7,1.8,2471.525,13.28,0.053,118.0
2023-10-20T01:10:03,42.805,6.029,0.039,-0.023,-0.011,103.0,101.0,101.0,13.4,1505.2,351.6,-0.8,1.8,2471.505,13.29,0.045,120.5
2023-10-20T01:13:03,42.805,6.029,0.02,-0.008,-0.017,103.0,102.0,101.0,13.4,1505.2,342.8,-0.8,1.8,2471.514,13.29,0.021,111.8
2023-10-20T01:16:03,42.805,6.029,0.032,0.006,0.007,104.0,102.0,101.0,13.3,1505.2,343.3,-0.7,1.8,2471.527,13.29,0.032,79.4
2023-10-20T01:19:03,42.805,6.029,0.054,-0.011,0.015,102.0,102.0,101.0,13.3,1505.2,335.6,-0.8,1.8,2471.514,13.29,0.055,101.5
2023-10-20T01:22:03,42.805,6.029,0.033,-0.005,-0.016,102.0,104.0,101.0,13.4,1505.2,333.8,-0.8,1.8,2471.525,13.29,0.033,98.6
2023-10-20T01:25:03,42.805,6.029,0.058,-0.038,0.02,103.0,103.0,101.0,13.4,1505.2,351.4,-0.8,1.8,2471.526,13.29,0.069,123.2
2023-10-20T01:28:03,42.805,6.029,0.032,-0.031,-0.019,102.0,102.0,102.0,13.4,1505.2,359.0,-0.8,1.8,2471.482,13.29,0.044,134.1
2023-10-20T01:31:03,42.805,6.029,0.04,-0.02,-0.029,102.0,101.0,102.0,13.4,1505.2,336.4,-0.8,1.8,2471.479,13.29,0.044,116.6
2023-10-20T01:34:03,42.805,6.029,0.036,-0.017,-0.01,101.0,103.0,101.0,13.3,1505.2,337.0,-0.8,1.8,2471.511,13.29,0.039,115.3
2023-10-20T01:37:03,42.805,6.029,0.002,-0.012,-0.023,102.0,103.0,101.0,13.3,1505.2,353.0,-0.8,1.8,2471.475,13.29,0.012,170.5
2023-10-20T01:40:03,42.805,6.029,0.042,-0.013,-0.006,104.0,103.0,101.0,13.4,1505.2,342.4,-0.8,1.8,2471.45,13.29,0.043,107.2
2023-10-20T01:43:03,42.805,6.029,0.037,-0.038,-0.006,103.0,103.0,101.0,13.4,1505.2,357.1,-0.8,1.8,2471.488,13.29,0.053,135.8
2023-10-20T01:46:03,42.805,6.029,0.06,-0.024,0.018,103.0,103.0,100.0,13.4,1505.2,334.2,-0.8,1.8,2471.511,13.29,0.064,111.8
2023-10-20T01:49:03,42.805,6.029,0.042,-0.004,0.023,104.0,102.0,101.0,13.4,1505.2,349.6,-0.8,1.8,2471.487,13.29,0.042,95.4
2023-10-20T01:52:03,42.805,6.029,0.039,-0.022,-0.002,103.0,103.0,101.0,13.4,1505.2,341.8,-0.8,1.8,2471.488,13.29,0.044,119.4
2023-10-20T01:55:03,42.805,6.029,0.023,-0.011,-0.028,102.0,102.0,101.0,13.4,1505.2,349.2,-0.8,1.8,2471.484,13.29,0.025,115.6
2023-10-20T01:58:03,42.805,6.029,0.021,-0.029,0.0,102.0,103.0,101.0,13.3,1505.2,346.2,-0.8,1.8,2471.506,13.29,0.035,144.1
2023-10-20T02:04:03,42.805,6.029,0.024,-0.019,-0.029,101.0,104.0,101.0,13.4,1505.2,353.1,-0.8,1.8,2471.513,13.28,0.03,128.4
2023-10-20T02:07:03,42.805,6.029,0.053,-0.023,0.008,103.0,101.0,102.0,13.4,1505.2,339.2,-0.8,1.8,2471.497,13.28,0.057,113.5
2023-10-20T02:10:03,42.805,6.029,0.057,-0.038,0.002,102.0,102.0,102.0,13.4,1505.2,347.6,-0.8,1.8,2471.529,13.29,0.068,123.7
2023-10-20T02:13:03,42.805,6.029,0.022,-0.032,-0.01,102.0,104.0,100.0,13.4,1505.2,352.1,-0.8,1.8,2471.508,13.29,0.038,145.5
2023-10-20T02:16:03,42.805,6.029,0.043,-0.021,0.001,103.0,103.0,101.0,13.4,1505.2,341.5,-0.8,1.8,2471.503,13.29,0.047,116.0
2023-10-20T02:19:03,42.805,6.029,0.036,-0.032,-0.031,102.0,103.0,101.0,13.4,1505.2,339.0,-0.8,1.8,2471.469,13.29,0.048,131.6
2023-10-20T02:22:03,42.805,6.029,0.04,0.001,-0.002,103.0,101.0,102.0,13.3,1505.2,331.1,-0.8,1.8,2471.48,13.29,0.04,88.6
2023-10-20T02:25:03,42.805,6.029,0.031,-0.011,-0.001,101.0,104.0,101.0,13.4,1505.2,337.0,-0.7,1.8,2471.526,13.29,0.032,109.5
2023-10-20T02:28:03,42.805,6.029,0.031,-0.023,-0.005,101.0,104.0,103.0,13.3,1505.2,339.3,-0.7,1.9,2471.472,13.29,0.038,126.6
2023-10-20T02:31:03,42.805,6.029,0.02,-0.026,-0.022,102.0,102.0,102.0,13.3,1505.2,346.4,-0.8,1.8,2471.493,13.29,0.032,142.4
2023-10-20T02:34:03,42.805,6.029,0.044,-0.02,0.002,102.0,103.0,101.0,13.3,1505.2,350.6,-0.8,1.8,2471.49,13.29,0.048,114.4
2023-10-20T02:37:03,42.805,6.029,0.045,-0.013,-0.019,103.0,103.0,102.0,13.3,1505.2,331.1,-0.8,1.8,2471.492,13.29,0.046,106.1
2023-10-20T02:40:03,42.805,6.029,0.012,-0.017,-0.028,101.0,103.0,101.0,13.3,1505.2,352.2,-0.8,1.8,2471.475,13.29,0.02,144.8
2023-10-20T02:43:03,42.805,6.029,0.042,-0.008,-0.021,103.0,101.0,101.0,13.4,1505.2,331.1,-0.7,1.8,2471.45,13.29,0.042,100.8
2023-10-20T02:46:03,42.805,6.029,0.025,0.002,-0.003,102.0,104.0,102.0,13.4,1505.2,342.8,-0.7,1.8,2471.492,13.29,0.025,85.4
2023-10-20T02:49:03,42.805,6.029,0.042,0.003,-0.013,104.0,101.0,102.0,13.4,1505.2,340.9,-0.8,1.8,2471.488,13.29,0.042,85.9
2023-10-20T02:52:03,42.805,6.029,0.026,-0.028,-0.006,102.0,103.0,101.0,13.4,1505.2,339.9,-0.8,1.8,2471.48,13.29,0.038,137.1
2023-10-20T02:55:03,42.805,6.029,0.031,-0.015,0.004,102.0,103.0,102.0,13.4,1505.2,336.8,-0.8,1.8,2471.441,13.29,0.034,115.8
2023-10-20T02:58:03,42.805,6.029,0.035,-0.034,-0.015,102.0,102.0,101.0,13.3,1505.2,349.0,-0.7,1.8,2471.461,13.29,0.048,134.2
2023-10-20T03:04:03,42.805,6.029,0.035,0.0,-0.005,103.0,102.0,101.0,13.3,1505.2,349.0,-0.8,1.8,2471.493,13.28,0.035,90.0
2023-10-20T03:07:03,42.805,6.029,0.033,-0.016,-0.021,103.0,102.0,101.0,13.4,1505.2,330.7,-0.8,1.8,2471.515,13.28,0.036,115.9
2023-10-20T03:10:03,42.805,6.029,0.034,-0.034,-0.013,102.0,103.0,102.0,13.4,1505.2,357.3,-0.8,1.8,2471.498,13.29,0.048,135.0
2023-10-20T03:13:03,42.805,6.029,0.045,-0.014,0.018,103.0,103.0,101.0,13.4,1505.2,347.6,-0.7,1.8,2471.48,13.29,0.047,107.3
2023-10-20T03:16:03,42.805,6.029,0.046,-0.024,-0.009,103.0,103.0,101.0,13.3,1505.2,346.2,-0.8,1.8,2471.485,13.29,0.051,117.6
2023-10-20T03:19:03,42.805,6.029,0.032,-0.007,0.016,103.0,102.0,102.0,13.3,1505.2,341.5,-0.8,1.8,2471.478,13.29,0.032,102.3
2023-10-20T03:22:03,42.805,6.029,0.026,0.012,-0.017,102.0,102.0,101.0,13.3,1505.2,338.0,-0.8,1.8,2471.45,13.29,0.028,65.2
2023-10-20T03:25:03,42.805,6.029,0.047,-0.039,0.006,101.0,103.0,102.0,13.3,1505.2,358.0,-0.8,1.8,2471.533,13.29,0.061,129.7
2023-10-20T03:28:03,42.805,6.029,0.019,-0.018,-0.016,104.0,104.0,101.0,13.4,1505.2,351.2,-0.8,1.8,2471.484,13.29,0.026,133.5
2023-10-20T03:31:03,42.805,6.029,0.047,-0.025,-0.014,103.0,101.0,101.0,13.3,1505.2,350.0,-0.8,1.8,2471.476,13.29,0.053,118.0
2023-10-20T03:34:03,42.805,6.029,0.038,-0.014,0.0,102.0,103.0,102.0,13.4,1505.2,344.4,-0.8,1.8,2471.46,13.29,0.04,110.2
2023-10-20T03:37:03,42.805,6.029,0.036,-0.028,0.0,103.0,103.0,101.0,13.3,1505.2,343.1,-0.8,1.8,2471.496,13.29,0.045,127.9
2023-10-20T03:40:03,42.805,6.029,0.036,-0.023,0.021,103.0,103.0,101.0,13.4,1505.2,346.4,-0.8,1.8,2471.469,13.29,0.042,122.6
2023-10-20T03:43:03,42.805,6.029,0.033,-0.014,-0.015,103.0,102.0,101.0,13.4,1505.2,353.2,-0.8,1.8,2471.446,13.29,0.035,113.0
2023-10-20T03:46:03,42.805,6.029,0.038,-0.039,-0.036,103.0,103.0,102.0,13.4,1505.2,343.5,-0.8,1.8,2471.495,13.29,0.054,135.7
2023-10-20T03:49:03,42.805,6.029,0.038,-0.027,0.019,103.0,102.0,101.0,13.4,1505.2,349.9,-0.7,1.8,2471.469,13.29,0.046,125.4
2023-10-20T03:52:03,42.805,6.029,0.056,-0.016,0.007,103.0,102.0,102.0,13.4,1505.2,337.8,-0.7,1.8,2471.475,13.29,0.058,105.9
2023-10-20T03:55:03,42.805,6.029,0.037,-0.001,0.021,104.0,103.0,101.0,13.3,1505.2,342.1,-0.8,1.8,2471.471,13.29,0.037,91.5
2023-10-20T03:58:03,42.805,6.029,0.032,-0.011,-0.013,103.0,104.0,101.0,13.3,1505.2,344.1,-0.7,1.8,2471.421,13.29,0.033,109.0
2023-10-20T04:04:03,42.805,6.029,0.044,-0.017,-0.009,103.0,103.0,101.0,13.4,1505.2,346.9,-0.8,1.8,2471.534,13.28,0.047,111.1
2023-10-20T04:07:03,42.805,6.029,0.078,-0.041,-0.01,103.0,101.0,103.0,13.3,1505.2,348.5,-0.8,1.8,2471.501,13.28,0.088,117.7
2023-10-20T04:10:03,42.805,6.029,0.044,-0.025,-0.021,102.0,103.0,101.0,13.4,1505.2,338.2,-0.8,1.8,2471.512,13.29,0.05,119.6
2023-10-20T04:13:03,42.805,6.029,0.035,-0.041,-0.036,102.0,103.0,101.0,13.4,1505.2,344.0,-0.8,1.8,2471.492,13.29,0.053,139.5
2023-10-20T04:16:03,42.805,6.029,0.049,-0.031,-0.015,102.0,103.0,101.0,13.4,1505.2,352.0,-0.8,1.8,2471.489,13.29,0.057,122.3
2023-10-20T04:19:03,42.805,6.029,0.01,-0.03,-0.013,103.0,102.0,101.0,13.4,1505.2,347.0,-0.8,1.8,2471.491,13.29,0.031,161.6
2023-10-20T04:22:03,42.805,6.029,0.032,-0.015,-0.018,102.0,103.0,102.0,13.4,1505.2,349.2,-0.8,1.8,2471.497,13.29,0.035,115.1
2023-10-20T04:25:03,42.805,6.029,0.037,-0.037,-0.011,102.0,103.0,101.0,13.3,1505.2,347.0,-0.8,1.8,2471.487,13.29,0.052,135.0
2023-10-20T04:28:03,42.805,6.029,0.042,0.005,-0.008,103.0,103.0,102.0,13.3,1505.2,340.5,-0.8,1.8,2471.495,13.29,0.042,83.2
2023-10-20T04:31:03,42.805,6.029,0.051,0.0,0.011,103.0,104.0,101.0,13.4,1505.2,345.9,-0.8,1.8,2471.451,13.29,0.051,90.0
2023-10-20T04:34:03,42.805,6.029,0.036,-0.03,-0.024,104.0,102.0,101.0,13.3,1505.2,350.2,-0.8,1.8,2471.466,13.29,0.046,129.8
2023-10-20T04:37:03,42.805,6.029,0.042,-0.023,-0.013,102.0,103.0,103.0,13.4,1505.2,349.6,-0.7,1.8,2471.522,13.29,0.047,118.7
2023-10-20T04:40:03,42.805,6.029,0.03,-0.012,-0.024,103.0,103.0,101.0,13.4,1505.2,330.0,-0.8,1.8,2471.454,13.29,0.032,111.8
2023-10-20T04:43:03,42.805,6.029,0.028,-0.03,0.004,102.0,103.0,102.0,13.4,1505.2,356.0,-0.8,1.8,2471.447,13.29,0.041,137.0
2023-10-20T04:46:03,42.805,6.029,0.038,-0.007,0.0,103.0,102.0,102.0,13.4,1505.2,344.0,-0.8,1.8,2471.429,13.29,0.038,100.4
2023-10-20T04:49:03,42.805,6.029,0.058,-0.045,-0.003,102.0,102.0,102.0,13.3,1505.2,353.8,-0.8,1.8,2471.446,13.29,0.073,127.8
2023-10-20T04:52:03,42.805,6.029,0.023,-0.026,0.022,104.0,102.0,102.0,13.4,1505.2,351.8,-0.8,1.8,2471.447,13.29,0.034,138.5
2023-10-20T04:55:03,42.805,6.029,0.015,-0.023,-0.024,103.0,103.0,102.0,13.4,1505.2,347.4,-0.8,1.8,2471.454,13.29,0.027,146.9
2023-10-20T04:58:03,42.805,6.029,0.03,-0.042,-0.037,102.0,104.0,101.0,13.3,1505.2,356.9,-0.8,1.8,2471.474,13.29,0.051,144.5
2023-10-20T05:04:03,42.805,6.029,0.027,-0.012,-0.018,102.0,103.0,102.0,13.4,1505.2,345.2,-0.7,1.8,2471.511,13.28,0.029,114.0
2023-10-20T05:07:03,42.805,6.029,0.053,-0.023,-0.041,103.0,104.0,102.0,13.4,1505.2,333.8,-0.8,1.8,2471.508,13.28,0.057,113.5
2023-10-20T05:10:03,42.805,6.029,0.027,-0.032,-0.019,103.0,104.0,101.0,13.4,1505.2,350.0,-0.8,1.8,2471.507,13.29,0.041,139.8
2023-10-20T05:13:03,42.805,6.029,0.041,-0.047,-0.034,102.0,103.0,101.0,13.4,1505.2,350.7,-0.8,1.8,2471.513,13.29,0.062,138.9
2023-10-20T05:16:03,42.805,6.029,0.035,-0.031,-0.055,102.0,103.0,102.0,13.4,1505.2,354.7,-0.8,1.8,2471.5,13.29,0.046,131.5
2023-10-20T05:19:03,42.805,6.029,0.026,-0.04,-0.023,103.0,102.0,102.0,13.3,1505.2,359.0,-0.8,1.8,2471.51,13.29,0.047,147.0
2023-10-20T05:22:03,42.805,6.029,0.055,-0.016,-0.004,104.0,103.0,101.0,13.4,1505.2,329.9,-0.8,1.8,2471.497,13.29,0.057,106.2
2023-10-20T05:25:03,42.805,6.029,0.034,-0.015,-0.028,102.0,103.0,101.0,13.3,1505.2,345.0,-0.8,1.8,2471.517,13.29,0.037,113.8
2023-10-20T05:28:03,42.805,6.029,0.036,-0.017,-0.022,103.0,102.0,103.0,13.4,1505.2,342.8,-0.8,1.8,2471.495,13.29,0.039,115.3
2023-10-20T05:31:03,42.805,6.029,0.047,-0.014,0.003,103.0,103.0,101.0,13.4,1505.2,348.4,-0.8,1.8,2471.469,13.29,0.049,106.6
2023-10-20T05:34:03,42.805,6.029,0.056,-0.02,-0.031,104.0,103.0,101.0,13.4,1505.2,341.2,-0.7,1.8,2471.46,13.29,0.059,109.6
2023-10-20T05:37:03,42.805,6.029,0.055,-0.025,0.001,101.0,102.0,103.0,13.4,1505.2,350.5,-0.8,1.8,2471.484,13.29,0.06,114.4
2023-10-20T05:40:03,42.805,6.029,0.028,-0.012,-0.035,103.0,102.0,101.0,13.4,1505.2,340.0,-0.8,1.8,2471.478,13.29,0.03,113.2
2023-10-20T05:43:03,42.805,6.029,0.024,-0.033,-0.027,102.0,103.0,102.0,13.4,1505.2,355.0,-0.8,1.8,2471.475,13.29,0.04,144.0
2023-10-20T05:46:03,42.805,6.029,0.052,-0.032,-0.007,101.0,101.0,102.0,13.4,1505.2,351.7,-0.7,1.8,2471.492,13.29,0.061,121.6
2023-10-20T05:49:03,42.805,6.029,0.055,-0.027,-0.02,104.0,102.0,102.0,13.4,1505.2,350.7,-0.8,1.8,2471.462,13.29,0.061,116.1
2023-10-20T05:52:03,42.805,6.029,0.023,-0.01,0.002,102.0,103.0,101.0,13.4,1505.2,339.3,-0.8,1.8,2471.494,13.29,0.025,113.5
2023-10-20T05:55:03,42.805,6.029,0.032,-0.013,-0.027,103.0,101.0,102.0,13.4,1505.2,345.2,-0.8,1.8,2471.464,13.29,0.034,112.1
2023-10-20T05:58:03,42.805,6.029,0.052,-0.022,-0.007,102.0,102.0,101.0,13.3,1505.2,336.0,-0.8,1.8,2471.512,13.29,0.056,112.9
2023-10-20T06:04:03,42.805,6.029,0.049,-0.022,-0.005,103.0,102.0,101.0,13.4,1505.2,335.6,-0.7,1.8,2471.564,13.28,0.053,114.2
2023-10-20T06:07:03,42.805,6.029,0.053,-0.037,-0.023,101.0,102.0,101.0,13.3,1505.2,336.3,-0.8,1.8,2471.541,13.28,0.064,124.9
2023-10-20T06:10:03,42.805,6.029,0.047,-0.037,-0.028,101.0,104.0,101.0,13.3,1505.2,338.3,-0.8,1.8,2471.562,13.29,0.059,128.2
2023-10-20T06:13:03,42.805,6.029,0.049,-0.009,0.001,103.0,102.0,101.0,13.4,1505.2,336.4,-0.8,1.8,2471.516,13.29,0.049,100.4
2023-10-20T06:16:03,42.805,6.029,0.038,-0.032,-0.029,102.0,103.0,101.0,13.4,1505.2,344.8,-0.8,1.8,2471.515,13.29,0.049,130.1
2023-10-20T06:19:03,42.805,6.029,0.04,-0.041,-0.023,102.0,101.0,102.0,13.4,1505.2,350.2,-0.8,1.8,2471.539,13.29,0.057,135.7
2023-10-20T06:22:03,42.805,6.029,0.028,-0.018,-0.011,103.0,102.0,101.0,13.4,1505.2,348.6,-0.8,1.8,2471.476,13.29,0.033,122.7
2023-10-20T06:25:03,42.805,6.029,0.049,-0.024,0.006,102.0,103.0,101.0,13.4,1505.2,348.4,-0.8,1.8,2471.543,13.29,0.054,116.1
2023-10-20T06:28:03,42.805,6.029,0.025,-0.016,-0.046,104.0,102.0,102.0,13.4,1505.2,345.4,-0.7,1.8,2471.527,13.29,0.029,122.6
2023-10-20T06:31:03,42.805,6.029,0.07,-0.027,0.038,102.0,102.0,101.0,13.4,1505.2,336.3,-0.7,1.8,2471.511,13.29,0.075,111.1
2023-10-20T06:34:03,42.805,6.029,0.033,-0.022,-0.035,102.0,102.0,101.0,13.3,1505.2,332.6,-0.8,1.8,2471.535,13.29,0.039,123.7
2023-10-20T06:37:03,42.805,6.029,0.027,-0.017,-0.026,102.0,103.0,101.0,13.3,1505.2,350.5,-0.8,1.8,2471.513,13.29,0.031,122.2
2023-10-20T06:40:03,42.805,6.029,0.007,-0.014,-0.001,103.0,103.0,102.0,13.4,1505.2,0.0,-0.7,1.8,2471.541,13.29,0.015,153.4
2023-10-20T06:43:03,42.805,6.029,0.039,-0.033,-0.014,102.0,103.0,101.0,13.4,1505.2,346.1,-0.7,1.8,2471.52,13.29,0.051,130.2
2023-10-20T06:46:03,42.805,6.029,0.035,-0.015,-0.004,103.0,102.0,101.0,13.4,1505.2,357.1,-0.8,1.8,2471.518,13.29,0.038,113.2
2023-10-20T06:49:03,42.805,6.029,0.028,-0.015,0.0,103.0,102.0,101.0,13.3,1505.2,340.6,-0.8,1.8,2471.543,13.29,0.031,118.2
2023-10-20T06:52:03,42.805,6.029,0.053,-0.027,-0.025,103.0,103.0,101.0,13.4,1505.2,349.5,-0.8,1.8,2471.546,13.29,0.059,117.0
2023-10-20T06:55:03,42.805,6.029,0.027,-0.005,-0.038,104.0,101.0,101.0,13.4,1505.2,337.6,-0.8,1.8,2471.511,13.29,0.027,100.5
2023-10-20T06:58:03,42.805,6.029,0.052,-0.021,-0.03,104.0,103.0,101.0,13.3,1505.2,331.5,-0.8,1.8,2471.508,13.29,0.056,112.0
2023-10-20T07:04:03,42.805,6.029,0.04,-0.022,-0.011,103.0,102.0,101.0,13.4,1505.2,343.9,-0.8,1.8,2471.585,13.28,0.045,118.8
2023-10-20T07:07:03,42.805,6.029,0.031,-0.029,-0.024,103.0,103.0,101.0,13.4,1505.2,356.9,-0.7,1.8,2471.616,13.29,0.042,133.1
2023-10-20T07:10:03,42.805,6.029,0.027,-0.025,-0.023,103.0,103.0,101.0,13.4,1505.2,334.5,-0.7,1.8,2471.634,13.29,0.036,132.8
2023-10-20T07:13:03,42.805,6.029,0.043,-0.026,-0.034,101.0,103.0,102.0,13.3,1505.2,350.2,-0.8,1.8,2471.625,13.29,0.05,121.2
2023-10-20T07:16:03,42.805,6.029,0.022,-0.032,-0.05,102.0,102.0,102.0,13.4,1505.2,352.7,-0.8,1.8,2471.579,13.29,0.038,145.5
2023-10-20T07:19:03,42.805,6.029,0.027,-0.015,-0.02,104.0,103.0,102.0,13.3,1505.2,354.9,-0.8,1.8,2471.586,13.29,0.03,119.1
2023-10-20T07:22:03,42.805,6.029,0.023,-0.029,-0.059,103.0,103.0,102.0,13.4,1505.2,343.4,-0.8,1.8,2471.542,13.29,0.037,141.6
2023-10-20T07:25:03,42.805,6.029,0.024,-0.006,-0.037,105.0,102.0,101.0,13.3,1505.2,350.0,-0.7,1.8,2471.562,13.29,0.024,104.0
2023-10-20T07:28:03,42.805,6.029,0.019,-0.022,-0.045,103.0,102.0,102.0,13.3,1505.2,343.1,-0.8,1.8,2471.587,13.29,0.029,139.2
2023-10-20T07:31:03,42.805,6.029,0.029,-0.03,-0.042,104.0,101.0,101.0,13.4,1505.2,338.5,-0.7,1.8,2471.568,13.29,0.041,136.0
2023-10-20T07:34:03,42.805,6.029,0.049,-0.031,-0.02,102.0,103.0,103.0,13.3,1505.2,349.5,-0.8,1.8,2471.568,13.29,0.057,122.3
2023-10-20T07:37:03,42.805,6.029,0.024,-0.004,-0.009,103.0,102.0,101.0,13.4,1505.2,330.9,-0.8,1.8,2471.559,13.29,0.024,99.5
2023-10-20T07:40:03,42.805,6.029,0.026,-0.001,-0.017,104.0,102.0,102.0,13.3,1505.2,340.0,-0.7,1.8,2471.557,13.29,0.026,92.2
2023-10-20T07:43:03,42.805,6.029,0.025,-0.012,-0.002,104.0,103.0,101.0,13.4,1505.2,349.0,-0.8,1.8,2471.553,13.29,0.027,115.6
2023-10-20T07:46:03,42.805,6.029,0.044,-0.02,-0.013,103.0,103.0,102.0,13.4,1505.2,351.9,-0.8,1.8,2471.569,13.29,0.048,114.4
2023-10-20T07:49:03,42.805,6.029,0.032,-0.008,-0.026,106.0,104.0,101.0,13.3,1505.2,342.5,-0.8,1.8,2471.568,13.29,0.032,104.0
2023-10-20T07:52:03,42.805,6.029,0.027,-0.007,-0.032,103.0,102.0,102.0,13.4,1505.2,337.5,-0.8,1.8,2471.525,13.29,0.027,104.5
2023-10-20T07:55:03,42.805,6.029,0.018,0.0,-0.015,103.0,102.0,102.0,13.4,1505.2,339.9,-0.7,1.8,2471.577,13.29,0.018,90.0
2023-10-20T07:58:03,42.805,6.029,0.024,-0.009,-0.013,102.0,102.0,101.0,13.4,1505.2,331.1,-0.8,1.7,2471.567,13.29,0.025,110.6
2023-10-20T08:04:03,42.805,6.029,0.017,-0.009,-0.023,103.0,103.0,101.0,13.4,1505.2,329.8,-0.8,1.8,2471.632,13.28,0.019,117.9
2023-10-20T08:07:03,42.805,6.029,0.01,-0.012,-0.037,102.0,103.0,102.0,13.3,1505.2,350.0,-0.8,1.8,2471.643,13.29,0.015,140.2
2023-10-20T08:10:03,42.805,6.029,0.03,-0.03,-0.023,102.0,103.0,102.0,13.4,1505.2,348.6,-0.8,1.8,2471.585,13.29,0.042,135.0
2023-10-20T08:13:03,42.805,6.029,0.032,-0.014,-0.016,103.0,102.0,101.0,13.4,1505.2,341.5,-0.8,1.8,2471.637,13.29,0.034,113.6
2023-10-20T08:16:03,42.805,6.029,0.04,-0.056,-0.011,103.0,103.0,101.0,13.4,1505.2,356.1,-0.8,1.8,2471.612,13.29,0.068,144.5
2023-10-20T08:19:03,42.805,6.029,0.032,-0.036,-0.014,103.0,102.0,102.0,13.4,1505.2,355.8,-0.8,1.8,2471.596,13.29,0.048,138.4
2023-10-20T08:22:03,42.805,6.029,0.03,-0.016,-0.032,101.0,102.0,102.0,13.3,1505.2,342.4,-0.8,1.8,2471.623,13.29,0.034,118.1
2023-10-20T08:25:06,42.805,6.029,0.021,0.018,-0.011,102.0,102.0,101.0,13.4,1505.2,348.4,-0.7,1.8,2471.6,13.29,0.027,49.4
2023-10-20T08:28:03,42.805,6.029,0.021,-0.017,-0.02,103.0,102.0,101.0,13.4,1505.2,332.6,-0.8,1.8,2471.635,13.29,0.027,129.0
2023-10-20T08:31:03,42.805,6.029,0.028,-0.001,0.002,103.0,103.0,101.0,13.4,1505.2,357.0,-0.8,1.8,2471.595,13.29,0.028,92.0
2023-10-20T08:34:03,42.805,6.029,0.017,-0.027,-0.018,102.0,103.0,102.0,13.4,1505.2,355.8,-0.8,1.8,2471.582,13.29,0.031,147.8
2023-10-20T08:37:03,42.805,6.029,0.025,-0.009,-0.052,103.0,103.0,101.0,13.4,1505.2,333.0,-0.8,1.8,2471.631,13.29,0.026,109.8
2023-10-20T08:40:03,42.805,6.029,0.035,-0.012,-0.014,102.0,102.0,101.0,13.3,1505.2,338.9,-0.8,1.8,2471.619,13.29,0.037,108.9
2023-10-20T08:43:03,42.805,6.029,0.008,-0.02,-0.044,102.0,104.0,102.0,13.4,1505.2,337.4,-0.7,1.8,2471.622,13.29,0.021,158.2
2023-10-20T08:46:03,42.805,6.029,0.011,-0.037,-0.06,103.0,104.0,100.0,13.4,1505.2,352.7,-0.8,1.8,2471.673,13.29,0.038,163.4
2023-10-20T08:49:03,42.805,6.029,0.007,-0.02,-0.027,103.0,102.0,102.0,13.4,1505.2,349.7,-0.7,1.8,2471.596,13.29,0.021,160.7
2023-10-20T08:52:03,42.805,6.029,0.026,-0.008,0.007,103.0,103.0,101.0,13.4,1505.2,355.9,-0.8,1.8,2471.584,13.29,0.027,107.1
2023-10-20T08:55:03,42.805,6.029,0.026,-0.016,-0.031,104.0,103.0,101.0,13.4,1505.2,332.1,-0.8,1.9,2471.614,13.29,0.03,121.6
2023-10-20T08:58:03,42.805,6.029,0.021,-0.04,-0.025,103.0,103.0,102.0,13.4,1505.2,349.2,-0.7,1.8,2471.647,13.29,0.045,152.3
2023-10-20T09:01:03,42.805,6.029,0.027,-0.004,-0.053,104.0,103.0,102.0,13.4,1505.2,331.1,-0.8,1.8,2471.623,13.29,0.027,98.4
2023-10-20T09:04:03,42.805,6.029,0.035,-0.02,-0.015,101.0,103.0,102.0,13.3,1505.2,336.8,-0.7,1.8,2471.644,13.29,0.04,119.7
2023-10-20T09:07:03,42.805,6.029,0.026,-0.009,0.0,104.0,102.0,102.0,13.4,1505.2,342.5,-0.8,1.8,2471.645,13.29,0.027,109.1
2023-10-20T09:10:03,42.805,6.029,0.015,-0.007,-0.031,102.0,102.0,102.0,13.4,1505.2,347.6,-0.7,1.8,2471.608,13.29,0.016,115.0
2023-10-20T09:13:03,42.805,6.029,0.007,-0.037,-0.053,103.0,103.0,101.0,13.3,1505.2,350.0,-0.8,1.8,2471.629,13.29,0.037,169.3
2023-10-20T09:16:03,42.805,6.029,0.025,-0.011,-0.02,103.0,103.0,101.0,13.3,1505.2,350.8,-0.8,1.8,2471.657,13.29,0.027,113.7
2023-10-20T09:19:03,42.805,6.029,0.032,-0.017,-0.015,103.0,104.0,102.0,13.3,1505.2,349.8,-0.8,1.8,2471.648,13.29,0.036,118.0
2023-10-20T09:22:03,42.805,6.029,-0.003,-0.01,-0.055,103.0,102.0,101.0,13.3,1505.2,358.1,-0.8,1.8,2471.685,13.29,0.01,196.7
2023-10-20T09:25:03,42.805,6.029,0.008,-0.004,-0.011,103.0,103.0,101.0,13.4,1505.2,354.7,-0.8,1.8,2471.656,13.29,0.008,116.6
2023-10-20T09:28:03,42.805,6.029,0.026,-0.008,-0.015,102.0,103.0,102.0,13.4,1505.2,347.4,-0.7,1.8,2471.67,13.29,0.027,107.1
2023-10-20T09:31:03,42.805,6.029,0.02,-0.003,0.002,103.0,102.0,102.0,13.3,1505.2,355.9,-0.8,1.8,2471.687,13.29,0.02,98.5
2023-10-20T09:34:03,42.805,6.029,0.027,-0.01,0.017,102.0,102.0,101.0,13.4,1505.2,339.8,-0.7,1.8,2471.596,13.29,0.028,110.3
2023-10-20T09:37:03,42.805,6.029,0.023,0.0,-0.037,103.0,103.0,101.0,13.4,1505.2,347.1,-0.8,1.8,2471.669,13.29,0.023,90.0
2023-10-20T09:40:03,42.805,6.029,0.016,-0.009,-0.003,103.0,103.0,101.0,13.4,1505.2,343.9,-0.7,1.8,2471.652,13.29,0.018,119.4
2023-10-20T09:43:03,42.805,6.029,0.015,-0.009,-0.044,103.0,102.0,101.0,13.4,1505.2,329.4,-0.8,1.8,2471.639,13.29,0.017,121.0
2023-10-20T09:46:03,42.805,6.029,0.008,-0.008,-0.035,102.0,105.0,102.0,13.4,1505.2,349.0,-0.8,1.8,2471.623,13.29,0.011,135.0
2023-10-20T09:49:03,42.805,6.029,0.04,-0.002,-0.014,103.0,103.0,102.0,13.4,1505.2,343.4,-0.8,1.8,2471.643,13.29,0.04,92.9
2023-10-20T09:52:03,42.805,6.029,0.043,0.0,0.007,103.0,103.0,101.0,13.3,1505.2,342.8,-0.8,1.8,2471.641,13.29,0.043,90.0